Regional Weather Roundup
Issued by NWS

Home | Current Version | Previous Version | Text Only | Print | Product List | Glossary On
Versions: 1 2 3 4 5 6 7 8 9 10 11 12 13 14 15 16 17 18 19 20 21 22 23 24 25 26 27 28 29 30 31 32 33 34 35 36 37 38 39 40 41 42 43 44 45 46 47 48 49 50
000
ASUS43 KTOP 220859
RWRKS

WEATHER ROUNDUP FOR KANSAS
NATIONAL WEATHER SERVICE GOODLAND KS
300 AM CST MON DEC 22 2014

NOTE:  "FAIR" INDICATES FEW OR NO CLOUDS BELOW 12,000 FEET WITH NO
SIGNIFICANT WEATHER AND/OR OBSTRUCTIONS TO VISIBILITY.

KSZ001>006-013>018-027>032-041>047-221000-
NORTHWEST KANSAS

CITY           SKY/WX    TMP DP  RH WIND       PRES   REMARKS
GOODLAND       CLOUDY    39  32  76 NW15      29.61R WCI  31
HAYS           CLOUDY    43  36  75 SW6       29.54R
HILL CITY      MOCLDY    37  34  89 SW5       29.53R
RUSSELL        CLOUDY    44  43  96 S13       29.53R FOG
$$

KSZ061>065-074>080-084>089-221000-
SOUTHWEST KANSAS

CITY           SKY/WX    TMP DP  RH WIND       PRES   REMARKS
DODGE CITY     CLOUDY    41  39  93 SW8       29.54F FOG
ELKHART          N/A    N/A N/A N/A MISG        N/A
GARDEN CITY    CLOUDY    36  35  96 W9        29.57R
GREAT BEND     CLOUDY    43  39  87 S9        29.55S
LIBERAL        MOCLDY    37  30  75 NW9       29.60R
$$

KSZ066>073-081>083-090>101-221000-
SOUTHEAST KANSAS

CITY           SKY/WX    TMP DP  RH WIND       PRES   REMARKS
CHANUTE        CLOUDY    44  43  96 SE10      29.65F FOG
COFFEYVILLE    CLOUDY    45  43  93 S8        29.65F
HUTCHINSON     CLOUDY    45  43  93 S10       29.58R FOG
MEDICINE LODGE   N/A     45  44  97 S6        29.55F
NEWTON         CLOUDY    43  37  81 S13       29.59F
PARSONS        CLOUDY    45  43  93 SE6       29.66F
WICHITA INTL   DRIZZLE   45  43  93 S12       29.58F FOG
WICHITA JABRA  CLOUDY    44  43  96 S12       29.57F FOG
WICHITA MCCONL CLOUDY    44  43  98 SE10      29.58F FOG
WINFIELD       CLOUDY    45  44  97 SE9       29.60F FOG
$$

KSZ007>012-019>026-033>040-048>060-102>105-221000-
NORTHEAST KANSAS

CITY           SKY/WX    TMP DP  RH WIND       PRES   REMARKS
CONCORDIA      CLOUDY    43  43 100 S14       29.55S FOG
EMPORIA        CLOUDY    42  42 100 SE12      29.61F FOG
LAWRENCE       CLOUDY    42  40  92 SE8       29.66F FOG
MANHATTAN      LGT RAIN  44  42  93 S10       29.60F
OLATHE IND     LGT RAIN  41  40  96 SE9       29.67F FOG
OLATHE EXE     CLOUDY    42  40  92 S12       29.67F FOG
SALINA         CLOUDY    45  43  93 S9        29.57F
TOPEKA BILLARD CLOUDY    45  42  89 SE10      29.65F
TOPEKA FORBES  CLOUDY    44  41  89 SE12      29.63F FOG
$$


USA.gov is the U.S. government's official web portal to all federal, state and local government web resources and services.